DELTA 1 DEB, 7162

Orbit data source: Space-Track

DELTA 1 DEB, 7162 is space debris in SSO originally from a launch on Tue, 06 Nov 1973 UTC launched from the Air Force Western Test Range (AFWTR). Debris objects in space refer to the collection of defunct objects orbiting the Earth. Examples of debris include non-operational satellites, rocket bodies, and fragments generated from explosions, collisions, or faulty payload assembly.

Loading next visibility...
Identifier
7162, 1973-086EA
Orbit
SSO
Country
Flag of USUS
Related business
Manufacturer
Unknown
Mission
Spacecraft
Bus & Motor
Unknown
Mass
Unknown
Launch date (UTC)
1973-11-06 (53 years ago)
Launch vehicle
Unknown
Launch site
Air Force Western Test Range (AFWTR)
Object type
Payload
Rocket body
Debris
Shape & HBR
Unknown shape, 0.1 m
Radar Cross Section
Medium (>0.1 m² and <1 m²)

Expand to show TLE details & history
Last TLE update: 13 hours ago

TLE from 13 hours ago
0 DELTA 1 DEB
1  7162U 73086EA  26209.20963372  .00000541  00000-0  23316-2 0  9998
2  7162 101.5002  70.8218 0100698  44.3605  70.0637 12.85851649434147
Epoch: 2026-07-28T05:01Z
TLE epoch observation values (Epoch: 2026-07-28T05:01:52.353Z)
Latitude
62.26398°
Longitude
-107.88485°
Altitude
1,302.808 km
Speed
7.223 km/s
True Right ascension
18h 13m 51s
True Declination
62° 07' 56"
Sunlit
Object was in daylight at epoch
Visualization orbit readout
Latitude
Unknown
Longitude
Unknown
Altitude
Unknown
Speed
Unknown
Apparent Right ascension
Unknown
Apparent Declination
Unknown
Sunlit
N/A
Visualization observer readout
Local Sidereal Time
07:33:25
Azimuth
Unknown
Elevation
Unknown
Doppler factor
Unknown
Orbital elements
Apogee altitude
1,392.99 km
Perigee altitude
1,238.043 km
Semi-major axis
7,693.654 km
Eccentricity
0.01007
Inclination
101.5002°
RAAN
70.8218°
Arg. of periapsis
44.3605°
True anomaly
71.15307°
Mean anomaly
70.0637°
Eccentric anomaly
70.60793°
Mean motion
3.21621 °/min
Orbital period
111.93 mins
BSTAR
0.0023316
Loading maneuver chart data...
Computing Atmospheric mass density...
Loading historical data...
Loading historical data...
Loading historical data...
Loading historical data...
Loading historical data...
Loading historical data...
Loading historical data...

Documentation

Showing up to 5 results
|